This is the latest recevied weather packets stored in our database for station/object DB0TGO-14. If no packets are shown the sender has not sent any weather packets the latest 1 day(s).
| Time | Temp. | Humidity | Pressure | Rain* | Wind** | Luminosity | Snow |
|---|---|---|---|---|---|---|---|
| 1778081590 | 13.89° C | 88% | 1008.1 hPa | 0 mm | - | - | - |
| 1778081485 | 13.89° C | 88% | 1008.1 hPa | 0 mm | - | - | - |
| 1778080630 | 13.33° C | 90% | 1008 hPa | 0 mm | - | - | - |
| 1778080416 | 13.33° C | 89% | 1008 hPa | 0 mm | - | - | - |
| 1778080320 | 13.33° C | 91% | 1008 hPa | 0 mm | - | - | - |
| 1778080020 | 13.33° C | 90% | 1008 hPa | 0 mm | - | - | - |
| 1778079810 | 12.78° C | 91% | 1007.9 hPa | 0 mm | - | - | - |
| 1778079615 | 13.33° C | 91% | 1007.8 hPa | 0 mm | - | - | - |
| 1778079285 | 13.33° C | 91% | 1007.9 hPa | 0 mm | - | - | - |
| 1778078870 | 13.33° C | 91% | 1007.9 hPa | 0 mm | - | - | - |
| 1778078655 | 13.33° C | 91% | 1007.8 hPa | 0 mm | - | - | - |
| 1778078443 | 13.33° C | 91% | 1007.8 hPa | 0 mm | - | - | - |
| 1778077895 | 13.89° C | 90% | 1007.8 hPa | 0 mm | - | - | - |
| 1778077678 | 13.33° C | 89% | 1007.8 hPa | 0 mm | - | - | - |
| 1778077324 | 13.33° C | 92% | 1007.8 hPa | 0 mm | - | - | - |
| 1778076376 | 13.33° C | 93% | 1008 hPa | 0 mm | - | - | - |
| 1778076376 | 13.33° C | 93% | 1007.9 hPa | 0 mm | - | - | - |
| 1778075701 | 12.78° C | 94% | 1007.9 hPa | 0 mm | - | - | - |
| 1778075485 | 12.78° C | 95% | 1007.9 hPa | 0 mm | - | - | - |
| 1778075253 | 12.22° C | 95% | 1007.8 hPa | 0 mm | - | - | - |
| 1778075135 | 12.22° C | 96% | 1007.9 hPa | 0 mm | - | - | - |
| 1778075020 | 12.22° C | 96% | 1007.9 hPa | 0 mm | - | - | - |
| 1778074795 | 12.22° C | 96% | 1007.8 hPa | 0 mm | - | - | - |
| 1778074585 | 12.22° C | 96% | 1007.7 hPa | 0 mm | - | - | - |
| 1778074467 | 12.22° C | 96% | 1007.8 hPa | 0 mm | - | - | - |
* Rain latest hour (hover to see other rain measurements)
** Current wind speed in m/s (hover to see current wind gust speed)